{"data":{"norad_id":89403,"intl_designator":"","name":"UNKNOWN","alt_names":[],"object_type":"UNKNOWN","status":"UNKNOWN","operator":null,"country":null,"launch_date":null,"launch_site_code":null,"launch_vehicle":null,"mission":null,"orbit_class":"UNKNOWN","rcs_meters":null,"size_class":null,"mass_kg":null,"dimensions":null,"purposes":[],"wikipedia_slug":null,"has_3d_model":false,"image_url":null,"decayed_at":null,"tle_current":{"epoch":"2026-05-18T02:49:06.051360Z","epoch_age_seconds":672775,"freshness":"AGED","line1":"1 89403U          26138.11743115 -.00000675  00000+0 -23029-2 0  9994","line2":"2 89403  90.2511   9.3940 0024357 167.7310 345.8153 12.98901475498124","mean_motion":12.98901475,"eccentricity":0.0024357,"inclination_deg":90.2511,"raan_deg":9.394,"arg_perigee_deg":167.731,"mean_anomaly_deg":345.8153,"bstar":-0.0023029,"rev_number":49812,"period_min":110.8629120619,"perigee_km":1247.7775262954,"apogee_km":1285.0171107747,"semimajor_km":7644.534318535,"source":"CELESTRAK","updated_at":"2026-05-25T13:38:11.781759Z"}}}